Wetbulb
64.94 65.28 66.41 66.96 66.86 67.16 67.05 67.18 67.00 67.20 67.24 67.20 67.18 67.32 67.26 67.04 66.95 66.63 66.12 65.81 65.53 65.05 64.42 63.82 63.18 63.20 63.47 63.68 63.87 63.85 62.10 62.74
65.72 65.54 66.07 65.98 65.65 66.16 66.26 66.30 66.18 66.00 65.97 65.71 65.94 66.10 66.52 66.59 66.12 65.66 64.99 64.60 64.18 63.48 62.54 62.28 62.13 62.17 61.85 62.01 61.81 61.77 59.69 61.76
66.68 66.67 67.65 67.71 66.25 65.94 65.98 66.40 66.08 65.81 65.55 65.24 64.40 66.06 65.61 66.16 64.23 64.63 63.90 63.17 62.75 62.15 61.70 61.66 61.71 62.02 62.56 61.97 61.73 58.79 58.69 58.98
66.94 67.24 67.59 67.16 64.98 65.22 66.25 66.64 66.18 66.07 66.16 65.76 66.30 65.42 65.14 64.67 64.70 64.11 64.19 63.86 63.73 63.36 62.99 62.36 61.52 58.79 59.58 61.47 59.04 59.03 58.10 57.48
65.94 68.11 67.97 67.28 66.01 65.34 65.89 65.99 66.32 66.91 66.50 66.06 66.19 65.37 65.57 64.96 63.61 62.81 62.91 63.83 62.97 62.58 61.41 60.26 60.49 59.64 58.89 58.55 58.36 58.03 57.03 57.09
66.17 67.41 67.41 66.39 64.94 64.96 65.11 64.40 66.14 65.08 66.46 66.14 65.53 64.30 64.16 63.02 62.59 61.93 61.82 61.93 61.68 60.09 59.75 60.49 59.59 60.54 59.89 58.85 58.08 57.27 56.28 56.03
65.64 67.32 67.44 66.21 64.46 65.18 65.35 64.74 65.66 65.23 64.97 65.69 64.83 63.07 63.20 62.66 61.71 61.04 60.44 59.84 59.01 58.80 58.03 58.38 58.59 59.12 58.87 57.83 56.67 56.16 56.29 55.87
66.56 67.46 68.30 65.27 64.04 64.33 64.29 65.27 65.09 65.01 64.10 63.82 63.53 63.08 62.35 61.51 60.64 59.78 59.26 59.15 58.64 57.81 57.43 57.92 57.30 57.82 56.91 57.05 55.81 54.88 53.70 53.43
65.61 67.22 68.16 65.62 64.36 64.20 63.32 63.36 62.22 62.22 62.49 62.42 62.26 61.94 61.52 60.81 60.01 59.47 58.88 59.43 59.09 58.61 58.35 57.54 57.31 57.46 56.43 56.50 55.64 54.78 53.65 53.31
65.33 66.11 67.36 66.66 65.33 63.86 62.96 62.59 62.01 61.34 60.87 61.02 61.06 61.17 60.75 59.94 59.42 59.10 59.80 59.23 58.58 57.86 57.36 56.37 55.91 55.63 54.88 55.07 54.42 54.03 53.31 53.20
64.31 65.37 66.08 66.35 65.49 63.28 62.98 62.22 61.21 61.34 61.17 60.33 60.88 60.07 60.33 58.80 57.92 58.51 59.18 57.85 57.44 57.33 56.05 55.93 54.74 54.79 55.22 54.64 54.61 53.72 52.92 54.46
64.01 64.81 65.85 65.63 63.99 62.85 61.57 60.74 60.64 60.92 59.89 58.74 58.94 58.14 59.05 57.89 57.02 57.22 58.02 56.57 56.00 55.91 55.72 56.10 55.38 55.07 56.61 55.95 55.08 55.43 54.48 52.06
62.20 61.48 61.88 61.33 61.29 59.55 58.16 57.30 57.44 57.73 58.06 58.65 58.42 58.32 57.39 56.30 55.73 55.35 54.99 54.06 54.05 54.26 53.52 52.78 53.27 54.46 53.69 53.20 53.40 54.51 54.21 54.59
59.00 58.41 58.36 58.07 57.75 57.61 57.23 56.95 57.40 57.42 58.14 57.03 58.02 57.68 56.41 55.34 54.43 53.50 53.30 52.11 51.74 51.68 51.77 51.63 51.61 52.19 50.96 50.67 47.59 49.70 51.93 53.49
57.52 57.77 57.76 57.58 57.68 57.49 57.02 57.34 57.03 55.67 56.30 56.23 55.89 56.35 55.83 54.88 53.31 52.12 51.80 51.49 50.18 49.77 49.87 49.38 48.62 49.79 50.24 48.77 45.61 43.84 47.33 50.42
57.88 57.89 57.30 57.04 57.56 56.36 55.98 54.65 53.41 53.78 53.80 54.25 53.78 53.67 53.04 51.87 51.50 51.05 50.36 50.51 49.49 49.17 50.50 49.03 48.18 46.60 48.15 49.88 47.76 46.46 43.84 43.14
57.49 57.45 57.13 56.85 56.45 55.80 54.17 53.01 52.60 52.59 52.01 51.55 51.12 51.65 51.28 51.05 49.50 48.94 48.86 48.84 48.49 48.75 47.71 46.18 46.33 44.69 44.06 43.39 42.62 42.79 43.54 42.77
57.50 56.85 56.34 56.82 55.62 54.99 53.81 52.40 51.51 50.12 50.18 49.44 49.53 49.41 48.97 48.45 48.69 47.95 48.21 47.89 46.60 46.19 45.65 45.65 44.63 43.57 41.98 42.08 40.57 39.07 38.41 37.87
56.50 56.10 54.87 54.80 54.60 54.38 53.69 52.45 51.65 50.39 49.85 49.19 48.46 47.17 46.13 45.87 47.22 46.47 45.46 45.20 44.94 44.82 44.74 43.70 43.56 41.76 40.55 40.02 39.94 39.03 38.57 37.62
54.88 54.55 53.40 53.06 52.84 53.10 53.27 52.65 51.17 50.32 50.15 48.43 46.98 45.71 45.26 45.74 45.51 44.21 43.65 43.85 43.57 43.38 42.94 42.93 42.94 42.07 40.33 40.15 40.12 40.51 40.47 39.40
MSLP
1016.92 1017.73 1018.05 1018.31 1018.47 1018.89 1018.99 1019.05 1019.24 1019.44 1019.61 1019.66 1019.76 1019.84 1019.76 1019.98 1020.12 1020.27 1020.34 1020.39 1020.36 1020.37 1020.39 1020.32 1020.21 1020.09 1020.01 1019.85 1019.57 1019.27 1019.10 1018.52
1016.21 1017.02 1017.53 1018.00 1018.60 1018.78 1019.03 1019.24 1019.19 1019.43 1019.57 1019.71 1019.79 1019.86 1019.67 1019.97 1020.20 1020.32 1020.42 1020.45 1020.49 1020.60 1020.57 1020.47 1020.30 1020.14 1019.95 1019.65 1019.35 1019.25 1018.96 1018.42
1015.67 1016.31 1016.81 1017.53 1017.93 1018.47 1019.15 1019.14 1019.26 1019.25 1019.38 1019.38 1019.67 1019.44 1019.68 1019.59 1019.88 1019.85 1020.00 1020.14 1020.11 1020.23 1020.30 1020.20 1020.14 1020.09 1019.87 1019.56 1019.29 1019.14 1018.86 1018.23
1016.12 1016.26 1016.96 1017.13 1016.84 1017.82 1018.45 1018.43 1018.82 1018.92 1019.02 1018.90 1019.09 1018.90 1019.02 1019.03 1019.37 1019.81 1019.91 1019.87 1019.96 1019.99 1020.02 1019.90 1019.93 1019.77 1019.47 1019.52 1019.38 1018.93 1018.47 1018.24
1015.93 1016.39 1016.81 1017.06 1017.16 1017.09 1017.37 1017.64 1017.84 1018.23 1018.35 1018.63 1018.61 1018.78 1019.08 1018.98 1019.29 1019.76 1019.84 1019.68 1019.78 1019.84 1019.77 1019.80 1019.43 1019.37 1019.31 1019.29 1018.96 1018.64 1018.49 1018.15
1015.87 1016.43 1016.79 1017.16 1017.32 1017.20 1017.24 1017.53 1017.72 1017.96 1018.40 1018.38 1018.63 1018.88 1018.83 1018.92 1019.08 1019.20 1019.30 1019.30 1019.25 1019.14 1019.07 1018.96 1018.94 1019.00 1019.10 1019.11 1019.05 1018.97 1018.69 1018.35
1015.47 1016.03 1016.73 1017.07 1017.31 1017.38 1017.64 1017.72 1017.75 1018.08 1018.05 1018.28 1018.65 1019.04 1019.08 1019.08 1019.17 1019.15 1019.08 1018.86 1018.79 1018.77 1018.80 1018.88 1018.77 1018.57 1018.49 1018.50 1018.55 1018.60 1018.42 1018.23
1015.12 1015.67 1016.30 1016.78 1017.11 1017.44 1017.69 1017.76 1017.76 1018.00 1018.09 1018.44 1018.62 1018.91 1019.06 1019.10 1019.03 1019.03 1018.97 1018.72 1018.64 1018.64 1018.72 1018.78 1018.60 1018.35 1018.28 1018.10 1018.00 1018.03 1018.18 1018.20
1014.72 1015.43 1015.94 1016.86 1017.10 1017.31 1017.50 1017.49 1017.85 1017.88 1017.96 1018.24 1018.53 1018.83 1019.02 1019.09 1019.14 1019.02 1018.86 1018.67 1018.61 1018.51 1018.33 1018.22 1018.18 1017.85 1017.89 1017.56 1017.43 1017.43 1017.55 1017.69
1014.29 1014.89 1015.79 1016.64 1016.97 1017.12 1017.19 1017.36 1017.70 1017.79 1017.90 1018.12 1018.40 1018.63 1018.90 1019.14 1019.18 1019.08 1018.85 1018.72 1018.58 1018.41 1018.31 1018.06 1017.82 1017.66 1017.45 1017.18 1016.99 1016.73 1016.76 1016.86
1014.36 1014.78 1015.37 1016.12 1016.58 1016.96 1017.29 1017.49 1017.78 1017.70 1017.75 1017.96 1018.30 1018.48 1018.74 1019.00 1019.17 1019.15 1018.99 1018.86 1018.71 1018.54 1018.24 1017.98 1017.73 1017.42 1017.12 1016.69 1016.50 1016.36 1016.20 1015.83
1015.17 1015.46 1015.80 1016.23 1016.77 1016.97 1017.30 1017.42 1017.41 1017.40 1017.63 1018.16 1018.46 1018.63 1018.82 1019.09 1019.10 1019.04 1018.81 1018.77 1018.56 1018.31 1018.09 1017.90 1017.62 1017.36 1016.99 1016.58 1016.27 1016.02 1015.87 1015.75
1016.23 1016.61 1017.11 1017.22 1017.19 1017.45 1017.67 1017.85 1017.80 1017.85 1017.84 1018.09 1018.42 1018.50 1018.68 1018.93 1018.92 1018.66 1018.72 1018.97 1018.66 1018.45 1018.07 1017.80 1017.57 1017.21 1016.89 1016.49 1016.06 1015.62 1015.32 1015.04
1017.17 1017.54 1017.80 1017.87 1017.94 1018.01 1018.23 1018.30 1018.22 1018.14 1018.03 1018.14 1018.21 1018.43 1018.75 1018.96 1019.15 1019.11 1018.83 1019.04 1018.92 1018.66 1018.35 1018.01 1017.56 1017.24 1017.08 1016.69 1015.93 1015.36 1015.14 1014.75
1017.91 1018.07 1018.33 1018.66 1018.63 1018.33 1018.44 1018.40 1018.20 1018.22 1018.39 1018.34 1018.51 1018.73 1018.88 1018.97 1019.03 1019.00 1018.93 1018.96 1018.94 1018.93 1018.75 1018.40 1017.87 1017.44 1017.18 1017.13 1016.51 1015.86 1015.28 1014.78
1018.19 1018.36 1018.56 1018.94 1019.13 1019.14 1019.20 1019.21 1019.12 1019.18 1019.01 1018.96 1018.96 1018.98 1019.13 1019.19 1019.19 1019.20 1019.26 1019.18 1019.18 1019.01 1018.74 1018.62 1018.34 1018.07 1017.71 1017.51 1017.50 1017.47 1016.74 1015.39
1018.68 1018.56 1018.56 1018.80 1019.18 1019.39 1019.54 1019.64 1019.74 1019.60 1019.53 1019.43 1019.51 1019.51 1019.46 1019.53 1019.56 1019.43 1019.36 1019.30 1019.27 1019.12 1019.16 1019.19 1019.16 1019.23 1019.15 1018.96 1018.60 1018.20 1017.87 1017.60
1018.76 1018.65 1018.68 1018.76 1018.92 1019.13 1019.28 1019.55 1019.73 1019.83 1019.80 1019.86 1019.88 1019.95 1019.99 1019.92 1019.81 1019.65 1019.43 1019.66 1019.84 1019.77 1019.71 1019.56 1019.74 1019.78 1019.93 1019.90 1020.00 1019.81 1019.37 1019.24
1018.65 1018.76 1018.79 1018.83 1018.98 1019.10 1019.31 1019.55 1019.72 1019.88 1020.02 1020.09 1020.21 1020.28 1020.31 1020.34 1020.10 1020.44 1020.49 1020.40 1020.32 1020.18 1020.12 1020.08 1020.19 1020.36 1020.53 1020.57 1020.50 1020.38 1020.09 1019.76
1018.75 1018.83 1019.01 1019.20 1019.40 1019.49 1019.72 1019.87 1019.96 1020.09 1020.23 1020.37 1020.42 1020.47 1020.59 1020.99 1020.99 1021.08 1021.14 1020.88 1020.75 1020.60 1020.52 1020.48 1020.49 1020.39 1020.29 1020.34 1020.23 1020.03 1019.78 1019.62
Wind_Speed
11 10 11 12 12 9 9 9 9 8 7 7 7 7 8 8 8 8 8 8 7 7 5 4 3 3 5 7 9 12 8 8
13 12 11 10 8 11 9 8 9 9 7 6 7 7 9 9 8 8 6 5 5 4 3 3 4 5 6 6 8 11 7 8
6 9 6 10 10 9 9 9 9 9 8 10 8 6 8 9 8 10 8 5 5 4 4 6 8 9 11 11 10 4 7 4
6 7 6 2 5 10 10 10 7 8 9 7 6 3 3 0 8 9 9 9 8 8 9 10 8 5 4 9 5 6 3 5
10 7 5 2 4 0 4 3 4 3 4 4 2 2 4 3 3 4 4 8 4 7 6 5 4 3 5 3 4 5 3 4
12 8 5 3 4 1 3 2 3 1 4 5 3 2 3 4 2 2 3 3 3 2 2 3 3 5 6 5 5 5 4 3
10 9 6 6 1 3 3 3 2 3 1 5 4 4 3 3 2 2 3 3 3 2 3 4 4 5 5 6 5 5 6 4
10 9 8 5 2 5 1 3 1 4 3 5 3 1 2 2 2 3 4 3 3 2 3 4 5 5 6 6 6 5 5 6
8 8 9 5 4 4 1 2 2 1 2 5 4 0 3 3 3 3 4 3 5 4 4 4 4 5 7 6 6 7 6 7
8 8 10 8 5 4 1 3 2 1 1 3 5 3 0 2 4 4 4 4 4 4 4 5 5 5 4 5 5 6 8 9
4 5 9 8 7 3 4 3 2 4 2 2 5 4 4 4 4 4 6 4 5 5 5 5 5 5 6 6 5 6 6 7
7 6 9 7 5 3 2 3 4 3 1 5 7 2 5 4 3 5 5 5 5 5 5 5 5 5 9 10 8 8 7 5
12 11 5 5 3 3 4 5 4 4 4 6 4 3 2 3 4 5 4 5 5 6 5 7 7 5 6 8 9 10 8 9
8 9 8 6 5 3 1 1 2 2 2 2 3 3 5 5 5 5 5 4 7 6 6 6 6 5 7 8 10 10 8 11
7 7 7 6 7 4 5 4 3 3 5 4 5 6 6 5 5 5 5 4 4 6 8 9 9 7 7 6 10 11 8 6
6 6 6 6 6 6 7 4 5 5 4 4 5 7 6 7 7 6 6 5 6 5 7 7 6 9 7 8 10 7 5 10
4 5 3 6 3 3 2 4 4 4 4 6 6 6 7 8 8 7 6 5 6 6 7 7 5 6 7 9 9 9 9 6
4 5 6 5 3 1 2 3 4 4 4 4 4 4 5 7 9 7 6 8 8 6 7 8 6 7 6 6 5 4 4 3
1 3 5 7 7 7 6 5 6 6 6 4 6 5 5 8 8 9 7 6 7 7 6 6 5 4 5 3 2 3 2 1
7 7 8 8 7 7 8 8 4 4 5 3 3 4 4 9 6 6 6 5 4 4 3 3 4 3 4 5 4 3 3 2
Wind_Direction
139 129 117 108 104 113 113 110 104 102 110 113 122 126 118 104 87 72 63 64 66 67 68 60 32 357 337 326 318 310 310 295
137 142 152 145 149 132 129 134 135 138 140 163 161 163 151 122 119 94 80 61 49 38 20 346 312 286 273 274 284 299 282 282
134 114 103 145 141 148 157 166 164 163 176 199 175 215 170 142 130 155 150 167 187 199 236 252 265 271 263 263 270 267 277 292
103 118 101 193 142 153 178 181 181 194 193 194 183 113 134 184 168 169 179 202 212 216 233 246 252 259 219 247 261 253 322 290
131 108 134 347 104 120 178 159 155 143 153 78 1 18 182 205 144 181 206 223 228 213 222 240 235 349 326 292 309 332 290 278
130 136 123 64 2 50 28 53 93 207 109 143 44 348 27 34 21 41 242 127 257 255 294 275 236 224 246 266 286 295 296 315
146 137 151 133 184 69 59 354 91 46 21 101 81 0 39 7 3 304 311 289 269 317 356 327 304 268 246 230 241 274 272 265
142 144 145 146 201 108 56 164 97 189 94 88 102 76 55 290 344 302 287 296 350 346 280 262 260 255 268 255 231 230 271 296
152 143 134 147 185 150 185 83 98 300 111 129 122 102 4 343 307 311 288 317 328 300 279 267 267 257 246 243 226 220 216 239
161 149 137 151 248 145 161 93 69 298 162 135 144 144 281 315 313 319 313 314 280 266 274 266 258 258 257 259 249 227 212 213
91 141 147 162 176 199 134 114 206 247 93 214 73 54 28 22 345 322 322 307 288 278 279 265 270 277 277 260 251 241 231 229
28 21 45 61 38 95 263 196 222 201 179 66 66 357 50 9 312 295 290 293 293 296 299 300 284 277 284 284 277 273 268 248
41 57 24 3 19 4 19 18 13 1 18 86 34 61 32 313 295 296 330 308 305 308 298 302 298 295 292 282 280 272 273 250
55 63 35 24 51 39 53 318 337 318 278 122 259 25 23 328 319 302 311 317 314 310 309 305 289 281 278 284 290 287 269 264
78 80 73 44 359 30 13 349 336 352 352 354 18 13 344 320 335 324 319 312 318 328 312 301 303 306 289 278 293 282 300 295
64 60 54 55 31 8 12 330 341 354 331 353 9 348 357 355 349 346 352 336 327 307 317 319 322 318 328 346 348 348 321 307
35 356 74 111 70 30 350 351 339 337 336 352 342 13 357 4 349 339 343 337 307 333 28 27 10 359 354 356 342 333 319 326
10 344 4 16 102 359 330 346 322 338 328 345 11 352 349 346 346 329 336 18 20 11 14 25 12 12 355 345 347 326 326 328
51 2 343 358 10 9 14 10 357 355 351 350 358 349 345 336 347 34 33 31 25 20 23 28 12 353 324 311 300 286 273 269
0 4 355 3 3 352 16 12 359 352 343 11 349 340 326 46 36 29 26 31 33 27 23 6 331 291 269 244 260 262 262 264